Tracking 30743 objects as of 22-Jun-2025
HD Live streaming from Space Station
objects crossing your sky now

FENGYUN 1C DEB

Track FENGYUN 1C DEB now!
10-day predictions


NORAD ID: 37917
Int'l Code: 1999-025ENS
Perigee: 821.5 km
Apogee: 889.6 km
Inclination: 98.9 °
Period: 101.9 minutes
Semi major axis: 7226 km
RCS: 0.0019 m2 (small)
Launch date: May 10, 1999
Source: People's Republic of China (PRC)
Launch site: Taiyaun Space Center, China (TSC)

Note: This is SATELLITE DEBRIS
Your satellite tracking list
Your tracking list is empty




NASA's NSSDC Master Catalog

Two Line Element Set (TLE):
1 37917U 99025ENS 25170.01962863  .00001365  00000-0  74537-3 0  9996
2 37917  98.9252 268.5067 0047077 187.3016 172.7476 14.13205170613276
Source of the keplerian elements: AFSPC